Temp
85 96 100 98 73 61 66 76 85 79 80 85 84 81 76 75 69 59 79 82 78 75 74 75 75 77 79 78 78 78 78 78 78 78 78 78 78 78 78 78 79 79 80 80 80 79 80 80 80
105 103 101 93 65 60 68 80 79 81 83 85 85 82 75 67 80 76 75 80 79 76 75 74 77 79 79 78 78 78 78 78 78 78 78 78 78 78 78 78 78 79 79 79 79 79 79 79 79
98 104 85 75 61 62 71 80 81 83 84 85 83 86 77 72 77 75 78 80 80 80 81 80 78 78 79 78 78 78 78 78 78 78 78 78 77 77 77 78 78 78 79 79 79 78 78 78 78
102 98 85 69 67 75 78 78 84 83 84 87 85 75 79 78 80 79 81 83 84 85 85 80 78 78 78 78 78 78 78 78 78 78 78 77 77 77 77 77 77 77 77 78 78 77 77 77 78
103 80 73 68 74 79 81 81 81 80 83 85 87 73 73 76 81 83 83 85 85 84 85 84 78 78 78 78 77 77 77 77 77 77 77 76 76 76 76 76 76 76 76 76 76 76 77 77 77
86 88 58 57 72 80 83 86 82 80 84 85 82 76 70 78 81 84 89 90 90 89 87 84 78 77 77 76 76 76 76 76 76 76 75 75 75 75 75 75 75 75 75 75 75 75 75 76 76
77 80 71 78 76 78 80 87 84 82 84 82 88 72 72 76 83 87 90 91 90 91 89 88 87 80 77 76 75 75 75 75 74 74 74 74 75 75 75 75 74 73 74 74 74 74 74 74 75
101 93 80 82 76 73 80 84 85 83 76 86 86 73 64 73 85 90 92 90 89 90 91 90 88 89 88 88 75 74 74 73 73 73 73 74 75 76 74 76 73 73 73 73 73 73 73 74 74
102 80 79 78 76 78 84 81 82 85 84 83 84 82 78 81 86 84 82 82 80 81 83 86 87 87 86 88 82 77 75 74 74 75 74 76 83 83 82 75 73 73 73 73 73 73 73 73 75
85 85 83 89 88 85 84 84 81 82 81 76 72 78 79 80 80 75 73 72 77 82 85 86 83 83 87 87 84 85 84 82 80 80 79 83 80 80 79 77 73 73 74 74 75 74 74 75 83
92 84 89 87 89 89 86 82 84 82 72 77 71 72 74 76 74 72 75 72 71 76 80 85 84 82 84 85 84 85 86 83 82 79 79 80 79 80 81 81 82 80 79 82 81 82 83 82 83
85 89 90 87 87 86 84 86 79 80 78 82 77 76 73 71 70 70 67 69 72 73 77 82 85 84 81 84 83 84 84 83 83 81 78 78 79 78 77 79 79 79 81 79 80 81 79 79 80
87 87 88 87 87 85 85 81 77 75 78 80 76 73 67 66 64 63 65 64 66 65 70 81 81 79 79 78 80 81 81 81 79 81 80 78 77 75 77 77 78 78 80 80 79 79 78 78 79
90 88 86 86 84 84 81 79 80 74 78 76 73 71 69 62 69 66 62 62 64 69 77 79 79 77 78 77 78 79 80 80 80 80 78 77 76 75 76 77 78 78 78 78 77 78 77 78 80
90 82 83 84 84 81 85 74 71 76 77 71 71 69 67 67 63 61 62 63 66 71 80 77 78 78 76 76 77 80 81 81 80 80 78 76 75 74 74 77 77 78 76 75 77 77 78 78 79
85 80 71 83 82 80 79 68 73 77 74 68 70 68 65 60 61 65 67 69 69 75 78 78 82 78 77 76 77 78 79 78 80 79 79 78 75 75 74 76 76 76 75 77 77 77 76 76 77
72 77 77 75 80 79 78 73 74 79 76 70 69 71 68 68 69 74 74 75 75 77 75 78 76 78 76 77 78 79 78 79 79 79 79 77 75 76 74 75 76 74 75 76 76 75 72 72 74
77 79 79 77 77 77 77 72 73 75 73 73 73 73 71 73 71 73 75 76 78 76 76 70 69 75 76 76 78 81 81 80 80 79 78 75 76 74 74 73 70 73 74 75 72 69 70 71 71
85 82 79 80 80 80 77 73 67 72 73 73 73 73 74 76 76 75 75 79 78 75 67 62 65 67 76 77 77 77 77 78 78 77 75 74 75 76 74 74 74 71 70 72 70 68 68 71 69
84 80 68 79 80 78 76 71 69 72 73 75 74 72 75 77 75 76 74 77 75 72 70 70 65 73 75 76 76 76 75 77 78 76 74 72 75 75 74 71 71 69 73 70 67 68 67 66 69
82 74 78 77 78 80 77 70 67 73 75 76 78 79 76 74 77 74 75 78 73 71 72 65 71 73 74 76 77 75 77 76 68 73 71 70 75 75 74 73 68 72 72 69 68 69 66 63 70
76 83 82 80 75 64 63 63 67 68 71 73 75 75 79 78 80 79 79 74 74 76 77 75 74 73 74 75 74 72 71 68 70 72 73 69 73 70 73 71 71 71 72 67 69 69 67 65 65
80 84 81 80 76 71 72 63 64 71 64 67 71 76 77 74 75 76 77 75 82 78 75 77 75 75 73 74 73 74 73 74 72 73 70 69 70 71 69 67 70 71 72 69 68 67 67 66 62
84 81 81 80 73 63 66 60 59 61 65 67 70 74 77 80 79 72 78 76 71 65 74 71 66 70 75 74 74 71 70 70 70 69 69 67 71 68 69 67 70 71 69 69 69 68 67 67 65
81 76 67 64 57 60 68 67 63 69 72 68 71 73 73 79 77 77 76 73 70 75 74 63 71 71 71 71 74 72 71 68 66 67 70 69 64 65 66 69 70 72 69 69 69 68 67 67 66
78 76 66 54 59 64 71 61 62 73 72 72 74 76 77 76 76 77 77 76 81 81 81 80 76 61 75 74 70 73 72 73 73 67 71 72 65 68 72 70 71 71 70 71 71 70 70 67 68
77 72 78 66 70 65 61 60 69 72 71 72 73 74 73 75 75 73 75 74 76 78 78 77 76 75 75 74 71 72 72 70 71 71 70 71 66 70 71 68 71 71 70 66 71 70 69 67 68
78 81 67 71 55 55 61 61 55 64 66 69 69 71 71 71 72 71 72 71 71 74 74 69 72 68 68 73 64 63 65 63 67 71 69 69 69 71 71 71 68 71 71 67 69 70 67 70 68
76 74 72 70 67 58 57 54 69 66 68 69 70 69 72 73 74 76 78 78 78 78 78 75 74 75 65 64 72 71 68 65 65 63 65 69 69 69 70 69 69 70 70 66 70 69 67 68 69
76 71 71 63 59 67 63 58 70 70 72 70 69 66 71 74 76 76 76 76 76 76 76 75 74 75 75 69 62 66 70 67 65 65 68 69 68 70 71 70 70 66 70 67 70 69 68 67 65
MSLP
1010.91 1010.22 1008.95 1007.66 1008.09 1009.32 1007.97 1007.62 1007.59 1008.35 1009.01 1010.42 1011.11 1011.27 1012.73 1014.01 1014.76 1016.55 1017.91 1018.30 1018.84 1019.29 1019.72 1019.92 1019.91 1019.65 1019.83 1019.79 1019.67 1019.68 1019.69 1019.69 1019.75 1019.65 1019.51 1019.42 1019.42 1019.44 1019.41 1019.27 1019.10 1018.98 1018.85 1018.66 1018.61 1018.54 1018.56 1018.35 1018.26
1008.40 1008.17 1007.67 1006.34 1008.42 1008.22 1008.35 1007.94 1008.09 1009.18 1010.23 1010.90 1011.19 1011.89 1013.42 1015.26 1015.64 1017.17 1018.19 1018.88 1019.13 1019.68 1019.93 1020.07 1020.05 1020.17 1020.23 1020.16 1020.11 1020.10 1019.99 1019.98 1019.90 1019.77 1019.73 1019.68 1019.69 1019.66 1019.54 1019.48 1019.34 1019.22 1019.15 1019.06 1019.03 1018.92 1018.83 1018.72 1018.59
1009.40 1007.86 1007.43 1008.01 1008.57 1008.54 1008.35 1009.19 1009.53 1010.33 1010.84 1010.44 1011.08 1012.37 1014.47 1015.87 1016.65 1017.96 1018.84 1019.01 1019.29 1019.59 1019.84 1020.28 1020.38 1020.49 1020.47 1020.45 1020.38 1020.31 1020.18 1020.10 1020.05 1020.03 1019.96 1019.97 1020.00 1019.84 1019.77 1019.73 1019.61 1019.48 1019.44 1019.29 1019.18 1019.16 1019.17 1019.00 1018.89
1007.54 1006.89 1007.66 1008.58 1008.42 1008.56 1009.27 1010.16 1009.90 1010.11 1010.90 1010.92 1011.62 1013.63 1015.68 1017.01 1017.01 1018.44 1018.98 1018.75 1018.91 1019.21 1019.77 1020.49 1020.63 1020.69 1020.67 1020.70 1020.53 1020.50 1020.39 1020.27 1020.20 1020.22 1020.21 1020.15 1020.00 1020.04 1019.90 1019.86 1019.80 1019.66 1019.55 1019.42 1019.42 1019.32 1019.15 1019.16 1019.05
1006.80 1008.84 1008.92 1008.91 1008.86 1009.42 1010.22 1010.90 1010.81 1010.58 1010.65 1010.96 1011.75 1014.27 1016.04 1017.92 1018.25 1018.55 1018.46 1018.37 1018.71 1019.29 1019.74 1020.46 1020.78 1020.70 1020.72 1020.69 1020.60 1020.57 1020.53 1020.45 1020.51 1020.42 1020.25 1020.33 1020.21 1020.09 1020.07 1020.13 1020.02 1019.89 1019.78 1019.69 1019.48 1019.35 1019.15 1019.08 1019.05
1006.36 1006.72 1009.01 1008.92 1009.22 1009.66 1010.16 1010.41 1011.07 1011.15 1011.17 1011.48 1012.73 1014.83 1017.20 1018.36 1018.22 1018.21 1017.86 1017.82 1018.21 1018.85 1019.71 1020.50 1021.02 1020.94 1020.92 1020.93 1020.91 1020.93 1020.77 1020.65 1020.66 1020.60 1020.51 1020.44 1020.36 1020.30 1020.30 1020.35 1020.22 1020.09 1019.95 1019.94 1019.74 1019.46 1019.34 1019.07 1018.99
1007.78 1007.22 1007.12 1007.52 1008.78 1009.19 1010.24 1010.58 1010.36 1011.07 1011.19 1012.27 1012.66 1014.84 1017.56 1018.18 1018.07 1017.96 1017.95 1018.10 1018.53 1018.93 1019.39 1019.70 1020.00 1020.65 1020.78 1020.75 1021.10 1021.16 1021.01 1020.99 1020.92 1020.92 1020.80 1020.58 1020.37 1020.28 1020.23 1020.15 1020.29 1020.22 1020.14 1019.96 1019.70 1019.53 1019.46 1019.26 1019.09
1004.14 1004.82 1006.19 1006.96 1007.80 1009.62 1010.83 1010.84 1011.56 1011.57 1012.70 1013.40 1013.68 1014.83 1017.46 1018.28 1017.94 1017.88 1017.89 1018.18 1018.42 1018.57 1018.73 1019.06 1019.66 1019.79 1019.82 1019.50 1020.82 1021.12 1021.11 1021.15 1021.13 1021.07 1020.89 1020.58 1020.23 1019.94 1020.10 1019.90 1020.08 1020.26 1020.10 1020.05 1019.74 1019.54 1019.40 1019.13 1018.91
1005.22 1005.71 1005.41 1006.76 1007.68 1009.32 1010.76 1010.96 1012.30 1012.70 1012.75 1013.78 1014.54 1015.23 1017.22 1018.06 1018.16 1018.32 1018.70 1019.61 1020.13 1020.19 1020.15 1020.27 1020.33 1020.12 1019.95 1019.70 1020.12 1020.65 1020.66 1020.85 1020.77 1020.82 1020.73 1020.16 1019.51 1019.49 1019.50 1019.81 1020.15 1020.01 1020.10 1020.01 1019.53 1019.50 1019.25 1018.94 1018.54
1006.37 1005.18 1006.05 1007.03 1007.82 1008.52 1010.37 1010.61 1012.04 1012.00 1012.96 1014.79 1016.29 1017.30 1018.00 1018.49 1018.83 1019.62 1020.20 1020.53 1020.42 1020.14 1020.12 1020.33 1020.96 1020.79 1019.80 1019.77 1020.00 1019.88 1019.98 1020.25 1020.57 1020.54 1020.52 1019.84 1020.10 1019.88 1019.94 1019.56 1019.62 1019.69 1019.57 1019.25 1018.91 1018.84 1018.82 1018.42 1017.48
1005.64 1005.79 1007.04 1008.13 1008.68 1009.07 1009.95 1011.25 1012.08 1012.11 1013.44 1014.69 1016.30 1017.62 1018.64 1019.14 1019.97 1020.61 1020.79 1021.40 1021.76 1021.43 1021.04 1020.45 1020.57 1021.06 1020.46 1019.91 1020.08 1019.78 1019.43 1020.10 1020.11 1020.47 1020.68 1020.32 1020.28 1019.69 1019.38 1018.98 1018.87 1018.98 1018.77 1018.40 1018.26 1017.87 1017.58 1017.34 1017.02
1006.06 1007.06 1007.66 1008.96 1009.52 1009.84 1010.13 1011.34 1012.68 1013.43 1014.35 1015.27 1016.67 1018.03 1019.25 1020.11 1020.93 1021.44 1021.95 1022.30 1022.34 1022.13 1021.41 1021.11 1020.95 1020.88 1020.96 1020.38 1020.35 1020.09 1019.83 1019.98 1019.89 1020.17 1020.79 1020.44 1020.19 1019.95 1019.78 1019.32 1019.35 1018.86 1018.46 1018.54 1018.18 1017.82 1017.90 1017.98 1017.75
1006.43 1007.69 1008.53 1009.52 1009.92 1010.53 1011.24 1011.98 1013.38 1014.73 1015.69 1016.20 1017.59 1018.79 1020.22 1021.09 1021.94 1022.56 1022.62 1022.65 1022.86 1022.49 1022.14 1021.26 1021.52 1021.65 1021.48 1021.07 1020.91 1020.66 1020.51 1020.43 1020.64 1020.17 1020.36 1020.84 1020.47 1020.45 1020.00 1019.77 1019.43 1019.13 1018.76 1018.34 1018.37 1018.02 1017.97 1017.77 1017.38
1006.66 1007.76 1008.63 1009.46 1010.45 1010.99 1011.33 1012.73 1013.47 1015.51 1016.33 1017.11 1018.32 1019.49 1020.74 1021.68 1021.97 1022.56 1022.90 1023.04 1023.05 1022.63 1021.48 1021.45 1021.49 1021.92 1021.72 1021.43 1021.37 1020.76 1020.77 1020.62 1020.33 1020.29 1020.79 1020.90 1020.87 1020.83 1020.23 1019.52 1019.21 1019.00 1019.02 1018.98 1018.72 1018.16 1018.08 1017.53 1017.08
1006.91 1008.05 1009.26 1009.32 1010.21 1010.94 1011.28 1012.55 1014.09 1015.63 1016.56 1017.71 1018.66 1019.94 1020.91 1021.59 1022.37 1022.55 1022.49 1022.74 1022.76 1022.19 1021.22 1021.52 1021.45 1021.68 1021.81 1021.55 1021.42 1020.87 1020.55 1020.56 1020.23 1020.17 1020.62 1021.01 1020.92 1020.95 1020.54 1019.36 1019.04 1018.98 1019.54 1018.99 1018.36 1017.98 1017.57 1017.16 1016.87
1006.75 1007.36 1007.20 1009.03 1009.93 1011.24 1012.02 1012.01 1014.51 1015.70 1016.55 1017.74 1018.55 1019.88 1020.95 1021.91 1022.11 1022.50 1022.54 1022.40 1022.44 1021.63 1021.03 1021.35 1021.22 1021.23 1021.53 1021.67 1021.48 1021.18 1020.77 1020.97 1020.11 1020.23 1020.21 1020.49 1020.79 1020.61 1020.40 1019.44 1018.99 1019.16 1019.42 1018.62 1018.01 1017.76 1017.46 1017.31 1016.95
1007.59 1005.73 1006.67 1008.23 1010.01 1010.58 1011.53 1011.54 1014.25 1015.16 1015.84 1016.85 1017.89 1018.62 1020.01 1020.57 1021.14 1021.03 1021.30 1021.30 1021.16 1020.98 1021.22 1021.14 1021.36 1021.15 1021.53 1021.43 1021.15 1020.45 1020.38 1020.17 1020.17 1020.24 1020.07 1020.20 1020.63 1020.17 1020.24 1019.61 1019.10 1019.50 1018.96 1018.29 1018.03 1017.92 1018.31 1017.77 1017.10
1005.62 1005.26 1006.01 1007.14 1009.66 1010.60 1010.52 1012.22 1014.07 1015.07 1015.73 1016.02 1016.76 1017.40 1018.26 1018.85 1019.56 1019.95 1020.06 1020.31 1020.20 1020.88 1021.19 1021.69 1021.66 1021.26 1021.31 1021.19 1020.59 1019.77 1019.60 1019.63 1019.82 1019.69 1019.77 1020.38 1020.14 1020.06 1019.93 1019.54 1019.36 1019.37 1018.79 1018.29 1018.80 1018.85 1018.63 1018.04 1017.45
1005.58 1005.51 1005.53 1007.02 1008.84 1009.44 1009.95 1012.05 1014.23 1015.04 1015.45 1015.64 1016.11 1016.64 1017.03 1017.44 1017.94 1018.81 1019.36 1019.35 1019.82 1020.56 1021.48 1021.49 1021.57 1021.61 1021.15 1020.69 1020.38 1020.01 1019.74 1019.63 1019.36 1019.60 1019.98 1020.26 1020.00 1019.70 1019.61 1019.43 1018.84 1018.99 1018.96 1018.61 1019.14 1018.81 1018.36 1017.59 1017.43
1005.21 1005.03 1006.42 1006.84 1008.46 1009.36 1009.77 1011.44 1013.79 1014.57 1014.91 1015.25 1015.58 1015.92 1016.47 1016.83 1017.30 1017.80 1018.47 1019.01 1019.59 1020.56 1020.87 1021.02 1021.42 1020.86 1020.73 1020.30 1020.22 1020.48 1020.24 1019.81 1019.51 1019.87 1020.13 1020.16 1019.71 1019.66 1019.43 1019.41 1019.19 1019.17 1018.82 1018.45 1018.66 1018.60 1018.32 1017.74 1017.14
1004.80 1006.22 1005.65 1006.57 1007.81 1008.95 1009.49 1010.20 1012.75 1013.91 1014.48 1014.61 1014.94 1015.27 1016.00 1016.26 1016.18 1016.95 1017.48 1017.75 1018.88 1019.53 1019.85 1020.53 1020.37 1020.24 1020.40 1020.24 1020.06 1019.89 1019.61 1019.39 1020.16 1020.00 1020.09 1020.04 1019.54 1019.45 1019.30 1019.16 1019.30 1018.94 1018.65 1018.26 1018.39 1018.36 1018.38 1018.01 1017.18
1005.18 1005.99 1006.25 1006.43 1006.96 1008.17 1010.85 1009.72 1011.58 1013.26 1013.72 1014.21 1014.63 1015.04 1015.10 1015.42 1015.66 1015.98 1016.34 1016.84 1017.59 1017.70 1018.06 1018.86 1019.30 1019.67 1019.92 1019.88 1019.77 1019.69 1019.87 1019.71 1019.76 1019.66 1019.67 1019.74 1019.41 1019.60 1019.22 1019.13 1018.86 1018.73 1018.56 1018.35 1018.37 1018.38 1018.24 1018.16 1017.30
1005.81 1006.48 1006.55 1006.63 1006.70 1007.50 1008.12 1010.01 1011.50 1012.76 1013.75 1014.57 1014.82 1014.75 1014.91 1015.64 1015.80 1016.11 1016.29 1017.43 1016.27 1016.65 1016.57 1017.72 1017.91 1017.92 1018.56 1019.20 1019.56 1019.47 1019.18 1019.03 1019.26 1019.43 1019.58 1019.13 1019.13 1019.34 1019.34 1019.11 1018.82 1018.57 1018.22 1018.36 1018.33 1018.19 1017.99 1017.94 1017.89
1006.77 1006.57 1006.03 1006.19 1006.85 1006.97 1008.68 1010.34 1011.87 1012.97 1013.98 1014.68 1015.25 1015.41 1015.40 1015.44 1015.78 1016.38 1016.58 1017.02 1017.56 1019.05 1018.25 1018.22 1017.47 1015.82 1017.83 1018.37 1018.89 1019.36 1019.42 1019.39 1019.32 1019.53 1019.24 1019.07 1018.76 1018.92 1018.81 1018.83 1018.44 1018.20 1018.29 1018.21 1018.02 1017.90 1017.80 1017.51 1017.47
1006.81 1006.09 1005.12 1004.89 1006.29 1006.79 1008.62 1009.44 1011.54 1013.02 1014.02 1015.22 1015.43 1015.64 1016.04 1015.79 1016.00 1016.23 1016.54 1016.82 1017.09 1017.28 1017.81 1018.19 1017.82 1017.58 1017.02 1017.44 1018.35 1018.92 1019.05 1019.19 1019.42 1019.06 1018.62 1018.70 1018.50 1018.35 1018.55 1018.36 1018.16 1017.83 1017.90 1017.82 1017.68 1017.59 1017.38 1017.16 1017.11
1006.58 1006.43 1006.65 1006.03 1005.99 1006.50 1008.03 1009.51 1012.14 1013.36 1014.67 1015.60 1015.83 1015.81 1015.93 1016.22 1016.40 1016.53 1016.78 1017.01 1016.63 1016.54 1016.73 1017.06 1017.53 1017.79 1016.94 1016.95 1018.00 1018.38 1018.60 1018.59 1018.29 1018.56 1018.37 1018.43 1018.43 1018.24 1017.90 1017.93 1017.69 1017.51 1017.59 1017.38 1017.12 1016.84 1016.80 1016.69 1016.64
1006.60 1006.68 1007.04 1007.47 1007.37 1007.15 1009.28 1011.90 1012.75 1013.72 1014.19 1015.41 1015.67 1015.98 1016.33 1016.46 1016.83 1017.37 1017.56 1017.72 1017.77 1017.52 1017.31 1017.39 1017.31 1017.22 1017.07 1017.17 1017.55 1017.21 1018.07 1018.21 1018.17 1018.26 1018.35 1018.15 1018.25 1017.79 1017.57 1017.62 1017.38 1017.25 1017.20 1017.27 1016.96 1016.66 1016.58 1016.47 1016.16
1007.79 1007.86 1007.75 1007.03 1007.00 1006.98 1008.27 1009.99 1012.53 1013.75 1014.36 1015.26 1015.81 1016.08 1016.65 1017.10 1017.59 1017.92 1017.97 1018.01 1018.07 1017.96 1017.68 1017.73 1017.64 1017.98 1018.10 1017.09 1017.44 1018.02 1017.87 1018.32 1018.01 1017.63 1018.14 1018.11 1017.95 1017.82 1017.64 1017.39 1017.16 1016.91 1017.02 1017.01 1016.78 1016.48 1016.23 1015.83 1016.00
1007.73 1007.35 1008.06 1008.63 1008.59 1008.33 1008.93 1011.46 1013.35 1014.22 1014.90 1015.36 1015.96 1016.99 1017.16 1017.48 1017.38 1017.35 1017.09 1017.19 1017.40 1017.63 1017.52 1017.65 1017.65 1017.43 1017.55 1017.73 1017.12 1017.35 1017.98 1018.24 1017.96 1017.91 1018.18 1017.28 1017.49 1017.71 1017.43 1017.11 1016.89 1016.60 1016.54 1016.64 1016.42 1016.51 1016.16 1015.70 1015.39
1009.08 1009.17 1009.33 1009.07 1008.95 1008.89 1010.04 1012.23 1014.34 1014.95 1015.56 1016.42 1017.05 1017.75 1017.67 1017.59 1017.41 1017.50 1017.66 1017.56 1017.68 1017.84 1017.82 1017.79 1017.81 1017.47 1017.01 1017.06 1017.46 1017.66 1017.50 1017.92 1017.72 1017.56 1017.45 1017.41 1016.92 1016.83 1016.79 1016.92 1016.63 1016.54 1016.25 1016.34 1016.31 1016.13 1015.63 1015.43 1015.36
Wind_Speed
12 13 13 7 5 5 1 12 10 10 12 14 13 14 16 15 10 6 7 13 14 10 9 9 9 11 13 15 16 16 15 15 14 13 13 14 14 13 13 14 14 14 15 14 12 11 9 9 7
11 9 9 8 3 5 11 13 15 15 13 9 8 10 15 9 10 14 8 14 15 12 10 10 15 16 15 16 15 15 14 14 13 14 14 14 13 12 13 13 13 12 12 12 12 12 11 9 8
19 9 4 6 5 6 15 12 14 11 6 2 6 12 8 5 12 6 12 15 16 14 15 14 17 15 15 15 14 14 14 13 14 14 14 14 13 14 13 13 12 12 11 11 10 10 9 9 8
11 3 8 6 14 17 16 11 11 12 8 3 14 12 10 11 7 10 14 16 15 15 15 15 15 14 14 13 12 12 12 12 12 12 12 13 13 13 13 13 14 13 12 10 9 8 8 7 7
12 10 5 5 16 16 13 8 5 7 5 7 14 8 11 11 16 13 14 14 15 14 14 14 14 13 12 12 11 10 9 9 8 8 10 9 10 11 11 11 11 11 11 11 11 10 8 6 5
9 9 5 10 13 9 10 9 7 9 9 8 15 14 9 11 13 11 11 13 14 15 14 13 13 12 12 11 10 9 7 6 6 7 7 8 8 9 8 9 10 11 11 10 10 9 8 6 6
9 10 3 13 11 10 9 7 11 6 7 11 8 11 8 11 11 10 13 13 12 12 11 10 10 10 11 13 9 8 8 6 6 6 5 4 4 4 4 6 9 10 11 11 11 11 11 9 9
4 8 7 11 9 10 7 5 6 3 6 5 7 5 10 9 11 11 11 11 11 9 9 9 8 10 8 8 10 4 4 3 3 3 3 6 6 5 4 1 12 11 11 11 11 11 13 13 13
11 10 7 9 7 12 10 10 2 2 9 9 9 11 20 13 10 9 13 13 10 9 10 13 11 7 6 7 6 9 7 5 5 5 2 10 5 7 10 9 5 8 9 11 10 10 12 14 17
11 3 16 13 5 14 9 6 6 7 12 9 12 15 17 12 12 11 10 6 7 9 8 9 10 12 8 7 6 4 3 6 6 6 7 7 5 4 7 9 4 8 6 12 7 10 13 14 11
14 13 11 11 8 6 10 8 3 5 13 6 14 17 16 13 12 10 11 11 7 5 7 10 9 9 12 8 6 4 2 3 4 3 6 4 6 5 6 5 5 6 3 6 7 6 6 11 10
10 9 11 9 6 5 4 9 9 10 6 8 14 16 16 14 9 11 12 7 5 1 2 8 10 10 9 8 6 6 5 4 4 6 3 6 6 6 6 5 7 5 5 6 6 5 6 7 8
11 8 10 9 7 7 5 7 10 8 8 10 14 15 14 14 12 6 7 5 2 3 9 5 7 8 9 10 7 6 6 4 6 4 5 6 6 5 6 5 6 6 6 7 7 7 7 8 8
8 10 12 9 8 7 7 10 8 7 9 11 13 12 12 11 12 9 4 3 6 7 6 3 5 4 7 6 8 6 3 4 3 4 6 7 6 5 7 6 6 5 6 7 8 7 8 8 8
11 11 10 10 8 7 5 8 6 9 10 9 10 9 10 9 9 9 11 9 9 14 7 3 1 4 5 8 7 7 4 6 4 3 2 3 4 5 7 6 5 4 7 9 7 6 8 8 8
16 14 7 12 7 6 7 6 9 8 10 10 8 9 11 10 11 13 11 11 11 11 7 5 2 3 5 6 7 6 6 7 5 4 4 2 5 5 7 7 6 7 8 7 7 7 8 9 9
17 5 2 10 2 3 10 8 9 10 10 13 10 9 9 13 14 15 15 15 15 11 8 6 1 6 4 4 6 6 3 4 3 4 4 3 7 5 6 8 7 6 9 7 7 7 9 10 9
9 12 7 9 9 7 4 6 7 6 7 6 6 8 11 11 14 15 15 14 10 6 6 0 3 9 5 6 8 6 6 3 4 4 4 7 7 5 6 7 4 4 8 6 6 7 8 8 10
11 11 8 11 6 11 5 9 8 6 6 6 5 5 6 2 12 14 12 12 6 5 6 6 5 9 6 7 7 8 8 6 5 3 2 5 7 8 7 9 6 3 8 5 8 8 9 8 4
12 12 13 5 4 5 8 10 6 6 5 2 4 7 8 9 3 9 7 8 8 11 11 8 9 13 8 7 3 5 6 6 6 5 6 6 8 8 8 4 8 3 8 7 7 6 7 9 0
14 3 13 16 6 12 8 12 9 7 5 3 1 4 7 11 10 13 11 10 12 12 13 12 14 11 9 7 5 5 7 7 2 5 5 5 8 7 8 8 4 9 7 7 6 6 9 7 9
16 4 10 13 8 6 12 9 10 12 8 4 2 3 6 5 5 3 5 10 11 14 15 16 11 10 8 8 7 3 7 7 4 6 7 6 8 8 8 8 8 8 8 7 7 6 7 7 9
17 11 13 15 18 10 14 10 10 3 10 5 3 2 7 4 9 5 4 11 6 2 9 11 15 14 12 9 8 6 7 5 2 6 10 10 5 8 5 8 8 8 9 6 9 9 7 6 5
6 12 15 13 8 14 6 10 12 6 4 8 9 7 7 9 6 6 12 17 14 13 18 19 11 6 8 10 8 7 7 8 8 8 9 6 5 5 7 5 8 8 7 7 8 8 8 7 6
8 14 13 9 6 8 10 8 9 7 11 9 4 8 8 9 5 7 5 2 3 6 6 8 8 7 9 7 7 7 7 7 8 8 5 7 4 3 3 5 7 8 5 6 7 8 8 7 7
15 10 10 17 13 11 13 2 9 14 12 7 3 3 8 10 11 11 12 12 13 15 15 13 8 5 7 5 3 9 10 8 6 2 6 5 3 1 4 4 7 7 7 7 4 7 7 5 6
11 9 10 11 18 15 8 6 10 9 9 3 2 4 6 7 12 14 16 12 13 12 12 11 9 9 9 9 11 10 8 8 8 8 4 5 7 5 3 5 8 8 5 6 5 5 9 7 6
8 11 10 8 9 11 8 7 8 7 6 4 2 4 11 15 11 8 7 6 5 10 10 6 11 10 18 11 5 6 2 5 9 7 7 7 9 7 8 6 8 4 6 6 7 7 6 5 5
8 7 3 4 8 9 12 10 5 7 4 5 10 10 8 9 8 10 10 12 12 13 14 13 14 12 6 9 8 8 7 10 5 2 12 7 5 9 9 9 6 8 5 6 6 9 10 3 5
3 7 8 8 2 9 6 7 6 5 8 11 12 7 5 8 11 12 11 10 9 11 11 12 12 14 15 6 2 11 9 10 10 7 11 11 8 9 10 8 9 8 1 7 4 6 6 5 5
Wind_Direction
190 206 228 249 320 74 42 86 107 100 88 66 55 57 72 31 14 70 92 99 103 110 116 115 114 94 79 74 68 69 67 67 60 57 61 58 54 52 48 45 45 45 43 46 50 53 50 50 51
215 216 240 274 184 27 62 77 56 60 85 96 82 88 45 59 96 104 94 99 100 93 90 96 93 85 77 72 70 68 68 67 61 65 60 57 53 50 47 45 44 42 44 47 42 40 42 46 48
257 245 264 112 269 140 90 71 63 63 103 257 103 63 55 79 52 73 106 106 107 104 101 89 87 85 83 80 75 69 66 68 67 64 64 61 56 55 52 48 43 40 37 36 40 39 35 31 31
253 225 39 349 90 85 88 57 123 143 102 343 73 81 105 29 69 103 123 119 110 108 98 91 88 85 80 72 68 66 65 70 65 66 61 59 56 53 49 43 38 32 32 32 31 27 23 21 18
234 58 186 112 83 72 72 76 348 55 45 79 93 102 86 69 102 120 137 131 109 109 110 94 91 86 79 73 64 57 62 63 62 63 68 60 59 52 48 41 38 35 28 21 19 9 7 4 354
273 145 341 38 98 113 86 126 136 35 61 106 96 96 76 118 123 141 137 117 119 108 107 102 96 95 89 68 56 51 49 55 60 60 64 66 62 54 46 38 31 20 16 7 5 7 354 342 324
117 115 202 130 113 118 87 355 46 73 108 46 74 93 112 124 134 130 111 111 117 116 120 121 124 136 125 105 70 42 40 41 55 59 57 66 93 88 55 47 32 12 357 350 346 341 339 333 314
315 98 146 104 119 106 100 92 115 51 76 101 340 137 138 163 140 129 126 111 99 93 95 96 66 21 358 109 106 107 96 73 85 65 12 287 243 208 186 351 33 350 338 329 325 322 319 315 308
36 355 89 102 97 111 140 138 94 170 110 46 45 59 126 147 135 116 82 69 64 55 49 36 33 21 35 22 85 183 167 193 196 191 200 266 325 350 345 64 356 333 322 306 293 290 291 291 284
78 305 61 47 51 123 155 103 140 185 131 112 100 108 128 146 121 99 109 130 77 78 75 76 39 10 28 38 351 14 55 59 22 14 339 336 357 340 301 287 233 273 290 284 264 262 262 260 260
93 78 98 65 57 102 108 112 102 293 91 97 144 140 139 133 120 136 102 83 73 43 35 36 71 49 8 32 349 6 46 350 126 89 341 358 320 11 331 317 346 341 290 331 320 316 291 341 324
105 52 89 99 89 120 81 101 66 42 55 91 130 145 139 136 131 117 104 94 66 117 48 25 53 38 41 14 18 353 30 342 358 32 352 342 323 359 345 354 330 332 337 321 340 319 347 297 293
109 97 100 121 114 87 122 53 95 82 80 100 110 117 112 119 106 102 116 109 21 24 254 68 39 33 20 29 10 13 350 25 346 341 35 341 330 356 320 337 310 316 340 339 334 323 333 305 286
101 142 138 137 126 137 149 140 220 110 119 122 132 138 131 132 154 132 129 151 211 215 207 130 72 45 21 25 358 349 35 297 310 329 31 321 341 3 313 307 338 326 344 347 319 328 314 311 298
152 152 151 152 154 146 147 144 90 136 138 137 147 140 149 152 145 179 184 197 211 240 162 162 237 43 11 12 354 342 4 330 321 325 224 292 315 318 312 303 288 327 338 283 290 314 305 301 299
214 104 247 140 167 116 252 102 128 159 148 161 161 155 163 177 179 194 204 212 230 241 222 181 345 360 11 24 331 345 18 314 329 337 309 4 308 300 302 315 316 25 291 300 303 312 315 316 306
303 180 54 131 140 110 233 107 135 177 184 168 170 183 180 199 203 203 212 211 229 222 244 200 273 297 333 334 306 283 333 291 316 299 297 39 297 301 300 301 327 347 290 302 320 344 339 310 297
347 346 141 78 120 222 191 89 149 174 199 229 178 185 189 194 206 212 220 215 227 215 208 57 280 291 299 285 271 338 319 313 311 320 2 322 312 284 292 291 260 289 286 322 332 321 291 297 285
314 315 305 86 155 275 30 140 169 194 236 247 250 236 249 249 207 214 219 220 212 183 179 209 249 263 254 291 312 347 342 321 302 344 1 308 291 291 301 288 313 321 296 338 289 279 313 300 338
290 292 102 223 133 250 153 156 191 176 218 251 326 186 211 216 183 183 182 217 224 219 226 226 233 240 239 260 317 334 299 316 314 354 310 302 288 298 281 280 318 286 295 276 248 314 308 301 126
312 239 335 332 130 245 276 189 158 160 216 213 117 300 194 240 210 173 202 196 209 226 219 217 230 234 238 269 267 246 293 239 303 259 246 266 291 279 286 287 262 291 292 290 321 321 310 309 303
306 341 316 297 271 315 197 291 144 165 165 117 107 157 233 216 250 263 261 169 203 206 214 215 233 229 224 228 252 274 289 301 309 291 288 289 287 291 295 298 281 294 295 311 306 301 302 299 315
298 333 311 299 289 265 219 288 126 129 95 110 140 269 38 31 15 282 317 341 243 26 230 213 220 200 205 216 228 278 309 304 294 302 269 258 251 264 273 269 280 286 273 318 287 287 298 291 303
335 274 269 261 277 249 73 204 125 128 107 89 54 34 15 20 5 111 244 20 35 351 6 355 357 208 189 213 215 235 269 283 300 305 300 299 232 222 233 267 269 278 294 281 294 299 289 291 288
257 271 291 285 181 293 196 255 78 106 79 74 61 29 39 354 33 349 30 111 169 241 118 173 245 257 188 187 222 258 262 248 274 260 344 314 289 225 174 293 269 284 278 279 289 291 287 279 283
301 317 305 298 307 342 165 97 103 82 83 73 48 353 25 6 24 3 28 352 351 351 350 355 21 216 259 193 211 248 229 257 253 164 254 287 337 340 301 256 283 283 298 282 286 285 300 318 290
329 273 359 305 266 248 71 61 146 135 112 134 58 27 15 356 24 14 9 9 351 344 328 329 331 319 298 247 244 220 238 241 278 286 276 264 260 263 231 328 292 286 280 297 314 312 306 290 296
286 336 291 242 285 308 189 158 58 150 128 111 196 350 23 26 17 11 1 355 325 336 331 7 346 354 337 309 176 247 27 343 265 248 247 277 296 289 288 280 298 282 283 286 292 306 321 317 305
301 278 306 299 286 309 297 98 56 85 85 7 45 30 13 348 338 316 344 351 356 347 347 349 338 326 273 226 254 246 270 259 288 328 281 282 245 260 264 283 277 291 236 253 279 290 291 337 270
313 338 297 295 62 307 302 82 78 68 66 30 359 59 333 320 348 345 352 345 355 345 346 344 342 332 330 354 45 288 264 259 265 251 260 269 258 261 250 249 273 278 258 264 298 298 310 307 22